Regional Weather Roundup
Issued by NWS

Home | Current Version | Previous Version | Text Only | Print | Product List | Glossary Off
Versions: 1 2 3 4 5 6 7 8 9 10 11 12 13 14 15 16 17 18 19 20 21 22 23 24 25 26 27 28 29 30 31 32 33 34 35 36 37 38 39 40 41 42 43 44 45 46 47 48 49 50

000
ASUS43 KMPX 211501
RWRMN
WEATHER ROUNDUP FOR MINNESOTA
NATIONAL WEATHER SERVICE TWIN CITIES/CHANHASSEN MN
1000 AM CDT THU SEP 21 2017


NOTE: "FAIR" INDICATES FEW OR NO CLOUDS BELOW 12,000 FEET WITH NO
SIGNIFICANT WEATHER AND/OR OBSTRUCTIONS TO VISIBILITY. N/A MEANS
CURRENT SKY AND/OR WEATHER CONDITIONS ARE NOT AVAILABLE.

MNZ060>063-068>070-211600-
   Twin Cities Metro

CITY           SKY/WX    TMP DP  RH WIND       PRES   REMARKS
TWIN CITIES    SUNNY     66  54  65 SE14      29.98S
ST PAUL        SUNNY     66  55  67 SE8       29.98F
CRYSTAL        SUNNY     66  51  58 SE8       29.96S
BLAINE         SUNNY     66  55  68 E10G16    29.97S
LAKEVILLE      SUNNY     63  57  82 E7        29.98R
EDEN PRAIRIE   SUNNY     66  54  65 E10       29.96S
SOUTH ST PAUL  SUNNY     65  53  64 SE7       29.98R
LAKE ELMO      FAIR      64  55  72 E7        29.99F
$$
MNZ001>005-007-008-013>017-022>024-027-028-211600-
   Northwest Minnesota

CITY           SKY/WX    TMP DP  RH WIND       PRES   REMARKS
BEMIDJI        SUNNY     60  46  57 SE12      29.92F
HALLOCK        CLOUDY    59  48  67 S17G23    29.81S
ROSEAU         MOSUNNY   59  48  67 S8        29.88R
WARROAD        CLOUDY    61  48  63 S12G18    29.89R
CROOKSTON      SUNNY     64  48  55 S23G29    29.86S
FOSSTON        SUNNY     64  46  52 SE14      29.89S
DETROIT LAKES  SUNNY     61  46  59 SE15      29.89F
MOORHEAD       SUNNY     64  48  55 SE16      29.86S
PARK RAPIDS    SUNNY     61  48  62 S12       29.93F
MAHNOMEN       FAIR      62  44  53 SE13G20   29.88F
$$
MNZ006-009>011-018-025>026-211600-
   North Central Minnesota

CITY           SKY/WX    TMP DP  RH WIND       PRES   REMARKS
BAUDETTE       CLOUDY    60  47  61 S12       29.93R
FLAG ISLAND    CLOUDY    59  50  72 S18G24    29.88R
INTL FALLS     SUNNY     60  47  61 SE12G17   29.96F
WASKISH        SUNNY     63  46  55 SE6       29.93S
BIG FORK       SUNNY     61  48  63 SE7G17    29.97F
LONGVILLE      SUNNY     57  52  82 SE10      29.95F
GRAND RAPIDS   SUNNY     58  48  69 SE9       29.99F
CRANE LAKE     SUNNY     55  50  82 SE3       30.02F
ORR            SUNNY     57  46  67 SE10      29.98F
COOK           SUNNY     59  48  67 SE10      30.02S
WALKER         FAIR      59  46  61 SE10      29.95S
$$
MNZ012-019>021-037-211600-
   Northeast Minnesota

CITY           SKY/WX    TMP DP  RH WIND       PRES   REMARKS
DULUTH         SUNNY     60  52  74 SE10      30.03F
ELY            SUNNY     59  46  63 SE10G17   30.04S
HIBBING        SUNNY     58  50  75 SE10      30.02S
EVELETH        SUNNY     58  53  84 E3        30.03S
DULUTH HARBOR  SUNNY     61  57  88 NE8       30.04S
SILVER BAY     MOSUNNY   63  54  72 E3        30.03F
GRAND MARAIS     N/A     63  53  70 E8        30.06S
$$
MNZ029>031-032-039>041-046>048-054>057-064-211600-
   West Central Minnesota

CITY           SKY/WX    TMP DP  RH WIND       PRES   REMARKS
FERGUS FALLS   SUNNY     63  48  59 S15G22    29.87F
WHEATON        SUNNY     63  48  59 SE16      29.86F
MORRIS         SUNNY     63  52  67 SE16      29.88F
ALEXANDRIA     SUNNY     63  50  62 SE12      29.93S
ELBOW LAKE     FAIR      62  49  62 E20       29.89F
WADENA         SUNNY     61  48  63 SE12      29.92S
GLENWOOD       SUNNY     63  52  67 SE16      29.93S
APPLETON       SUNNY     63  50  63 SE10      29.88F
BENSON         SUNNY     64  50  59 S13G21    29.90F
ORTONVILLE     SUNNY     59  50  72 NE9G17    29.88S
MADISON        SUNNY     64  54  68 SE10G17   29.88F
WILLMAR        FAIR      64  54  68 SE14      29.92F
$$
MNZ033>034-036-042>043-049>051-058-059-211600-
   Central Minnesota

CITY           SKY/WX    TMP DP  RH WIND       PRES   REMARKS
ST CLOUD       SUNNY     62  51  67 SE9       29.96S
SAUK CENTRE    FAIR      61  51  70 SE8       29.93F
PAYNESVILLE    SUNNY     64  52  64 SE10G18   29.94S
AITKIN         SUNNY     61  50  67 E10       29.96F
PINE RIVER     SUNNY     59  50  72 SE6       29.97F
BRAINERD       SUNNY     61  49  64 SE10      29.95F
LITTLE FALLS   SUNNY     61  43  51 SE8       29.94F
LITCHFIELD     SUNNY     64  55  72 E13       29.94F
BUFFALO        SUNNY     64  50  61 E7        29.97F
MAPLE LAKE     SUNNY     65  53  67 SE7       29.97S
HUTCHINSON     CLOUDY    65  55  70 E14       29.95F
$$
MNZ037-044-045-052-053-211600-
   East Central Minnesota

CITY           SKY/WX    TMP DP  RH WIND       PRES   REMARKS
PRINCETON      SUNNY     63  54  72 E7        29.97S
MORA           SUNNY     59  50  72 SE7       30.01S
RUSH CITY      SUNNY     59  52  77 E3        30.00F
MOOSE LAKE     SUNNY     57  52  82 E3        30.00S
HINCKLEY       FAIR      59  52  77 E8        30.00F
CLOQUET        SUNNY     59  48  67 SE9       30.03S
MCGREGOR       SUNNY     61  50  67 E10       30.00F
$$
MNZ071>073-080-081-089-090-097-098-211600-
   Southwest Minnesota

CITY           SKY/WX    TMP DP  RH WIND       PRES   REMARKS
MONTEVIDEO     SUNNY     64  52  63 S13G18    29.89S
GRANITE FALLS  SUNNY     63  53  69 E14G23    29.90F
CANBY          SUNNY     63  53  70 E9        29.88F
MARSHALL       SUNNY     63  54  72 SE10      29.89F
REDWOOD FALLS  SUNNY     64  53  67 E9        29.90F
OLIVIA         SUNNY     64  52  63 SE13G21   29.90F
PIPESTONE      SUNNY     66  54  63 S9        29.88S THUNDER
WORTHINGTON    SUNNY     66  58  75 SE12G21   29.91F
JACKSON        SUNNY     64  57  77 SE13G18   29.93R
TRACY          SUNNY     66  56  71 SE8       29.89F
SLAYTON        SUNNY     60  53  77 SE9       29.91F
$$
MNZ065>067-074>077-082>085-091>093-211600-
   South Central Minnesota

CITY           SKY/WX    TMP DP  RH WIND       PRES   REMARKS
MANKATO        SUNNY     66  55  67 E13       29.95R
NEW ULM        SUNNY     64  54  68 E12G17    29.92F
ST JAMES       SUNNY     64  55  72 E10       29.93F
FAIRMONT       SUNNY     67  60  78 SE9G17    29.93F
GLENCOE        SUNNY     65  57  74 E14       29.95S
FARIBAULT      SUNNY     64  55  72 E12       29.97F
OWATONNA       SUNNY     66  57  72 SE9G16    29.96F
WASECA         SUNNY     64  55  72 E10       29.97S
$$
MNZ078>079-086>088-094>096-211600-
   Southeast Minnesota

CITY           SKY/WX    TMP DP  RH WIND       PRES   REMARKS
ROCHESTER      PTSUNNY   65  59  81 E10       30.00F
RED WING       SUNNY     66  54  63 SE9       29.98S
STANTON        SUNNY     67  56  70 E7        29.97S
DODGE CENTER   SUNNY     66  57  72 E9        29.98S
WINONA         MOSUNNY   61  59  94 CALM      30.00F
AUSTIN         CLOUDY    64  57  77 E9        29.97F
PRESTON        CLOUDY    62  56  83 SE6       30.01S
$$
ABBREVIATIONS USED IN REMARKS
   TC - TEMPERATURES IN CELSIUS
  WCI - WIND CHILL INDEX
   HX - HEAT INDEX
  VSB - VISIBILITY
$$




USA.gov is the U.S. government's official web portal to all federal, state and local government web resources and services.